Aeroporto :
LOGIN :

Iscrizione | Disclaimer

   EN    FR    IT 

 










Sommario :    VFR   VFR Marginale   IFR   IFR Intensivo   IFR Molto Intensivo
Visibilità : 
Base nubi : 
>= 8 km
>= 3000ft
5 / 8 km
1000 / 3000 ft
1500m / 5 km
500 / 1000 ft
800 / 1500m
200 / 500 ft
< 800m
< 200 ft
Simboli :   Temporali  Nebbia  Neve Forte  Precipitazioni Forti  Vento > 20 kt
SIGMETs :   Varie  Temporali  Ghiacco  Turbolenza  Onda orograficha  Ceneri Vulcaniche







- Altitudine del aeroporto : 412 ft
- Codice IATA : ORE
- Carte del aeroporto


LFOJ - Orleans

ULTIMO METAR :
  • 192000Z AUTO 22005KT CAVOK 20/12 Q1020 NOSIG

METARs OBSOLETI :
  • 191930Z AUTO 20004KT CAVOK 20/12 Q1020 NOSIG
  • 191900Z AUTO 21004KT CAVOK 20/12 Q1019 NOSIG
  • 191830Z AUTO 24004KT CAVOK 21/12 Q1019 NOSIG
  • 191800Z AUTO 26008KT CAVOK 22/12 Q1019 BECMG 20010KT
  • 191730Z AUTO 25010KT CAVOK 23/12 Q1019 NOSIG

TAF TAF LFOJ
Valido dal 19 a 15 ore il 20 a 15 ore UTC


191400Z 1915/2015 20010KT 9999 FEW045
TEMPO 1915/1918 23020KT
PROB30 2005/2008 4000 BR BKN007
Nessun NOTAM noto per questo aeroporto.



MetMap, La meteo Aeronautica in un colpo d'occhio ! - Copyright ORBIFLY Dicembre 2007 - Disclaimer

ORBIFLY MET'MAP TEAM :

Programmazione e sviluppo : Alexandra Zaïnal
Concezione e sviluppo : Baudouin d'Aumeries
Co-Programmazione e sviluppo : Marc-Olivier Méhu
Supporto tecnico e logistico : Manuel Goepfert
Aiuto per la traduzione : Arnaldo La Scala

Contatto : metmap@orbifly.com




FONTI E CREDITI :

   NOAA